Weather in Vakhrushi

Russia / Kirov Oblast     58°41′04″N   50°01′35″E
temp.,
°C
wind,
m/s
gust,
m/s
humid.,
%
clouds,
%
prec.,
mm/h
press.,
hPa
HPBL,
m
16 june, wed
wed1600:00+16ssw279344 0.2 1011139
03:00+15ssw279891 1.0 1011178
06:00+18sw269299 0.6 1010183
09:00+22sse126646 0.6 1010343
12:00+26sse245179 0.7 10071192
15:00+18ne3396100 9.1 1006118
18:00+17nnw41097100 9.2 1006611
21:00+15nnw411977 12.6 1009610
17 june, thu
thu1700:00+12nnw299814 0.0 1011279
03:00+10nw389770 0.0 1012163
06:00+12nw39885 0.0 1013327
09:00+18nnw47460 0.0 10141534
12:00+16nw375586 0.0 1015403
15:00+16nnw696012 0.1 10161107
18:00+15nnw5106027 0.3 10181742
21:00+10nnw310802 0.4 1020341
18 june, fri
fri1800:00+9nnw311834 0.0 1022392
03:00+7nw28965 0.0 1024176
06:00+12nnw34685 0.0 1025355
09:00+16wnw334818 0.0 10251176
12:00+19w454146 0.0 10241696
15:00+21wnw4636100 0.0 10231725
18:00+18w2656100 0.0 1022245
21:00+14wsw3975100 0.0 1022180
19 june, sat
sat1900:00+13wsw3107494 0.0 1022205
03:00+12wsw31077100 0.0 1021213
06:00+17wsw497376 0.0 1021274
09:00+23w585512 0.0 1020811
12:00+27wnw68385 0.0 10182109
15:00+28wnw59390 0.0 10172299
18:00+26wnw49520 0.0 1017473
21:00+19w39770 0.0 1018159
20 june, sun
sun2000:00+17w310820 0.0 1019181
03:00+16wnw38880 0.0 1020133
06:00+20wnw36712 0.0 1021215
09:00+26wnw35470 0.0 1020727
12:00+29wnw35380 0.0 10202272
15:00+30w46350 0.0 10192595
18:00+27w38525 0.0 1018397
21:00+21wsw367319 0.0 101999